User: anonymous   Login
Location: Unspecified
(0.0000°N, 0.0000°E)
Time: 07:48:51
(UTC+00:00)
Language:

STARLINK-3609 - Orbit

View from above orbital plane
View from above orbital plane
View from above satellite
View from above satellite

Ground track
Ground track

The orbit is defined by the following mean orbital elements,

1 51808U          26144.99932507 +.00000000 +00000-0 +24364-4 0 00009
2 51808  53.2161 356.5525 0001385  94.7311 265.3839 15.08841580    01
Epoch (UTC): 24 May 2026 23:59:01
Eccentricity: 0.0001385
inclination: 53.2161°
perigee height: 539 km
apogee height: 541 km
right ascension of ascending node: 356.5525°
argument of perigee: 94.7311°
revolutions per day: 15.08841580
mean anomaly at epoch: 265.3839°

The dashed part of the orbit path shows where the satellite is in the earth's shadow,  

DLR